STARLINK-36287, 67708

Orbit data source: Space-Track

STARLINK-36287, 67708 is a payload satellite owned by SpaceX/Seattle (US) in SSO that was launched on Sat, 07 Feb 2026 UTC via an FALCON 9 launch vehicle from the Air Force Western Test Range (AFWTR). Payload-class satellites include a variety of spacecraft equipped with specific instruments for various scientific and technological missions. These include communications satellites like Starlink; space stations such as the ISS; scientific satellites like the Hubble; Earth observation satellites from companies like Planet Labs, Umbra, and HawkEye 360; GPS; miniature CubeSats for education and research; and military/defense satellites.

Loading next visibility...
Identifier
67708, 2026-025R
Orbit
SSO
Country
Flag of USUS
Related business
Manufacturer
SpaceX/Seattle
Mission
Operational spacecraft
Bus & Motor
STARLINK V2MO, Unknown motor
Mass
575 kg wet, ~530 kg dry
Launch date (UTC)
2026-02-07 (2 months ago)
Launch vehicle
FALCON 9
Launch site
Air Force Western Test Range (AFWTR)
Object type
Payload
Rocket body
Debris
Shape & HBR
Unknown shape, 17.7 m
Radar Cross Section
RCS unknown

Expand to show TLE details & history
Last TLE update: 12 hours ago

TLE from 12 hours ago
0 STARLINK-36287
1 67708U 26025R   26104.04787481  .00012480  00000-0  38817-3 0  9990
2 67708  97.2860 216.2732 0000629  83.2202 276.9112 15.33452493 11446
Epoch: 2026-04-14T01:08Z
TLE epoch observation values (Epoch: 2026-04-14T01:08:56.383Z)
Latitude
-0.00006°
Longitude
-3.19145°
Altitude
468.581 km
Speed
7.632 km/s
True Right ascension
14h 25m 05s
True Declination
0° 00' 00"
Sunlit
Object was in full shadow at epoch
Visualization orbit readout
Latitude
Unknown
Longitude
Unknown
Altitude
Unknown
Speed
Unknown
Apparent Right ascension
Unknown
Apparent Declination
Unknown
Sunlit
N/A
Visualization observer readout
Local Sidereal Time
19:15:11
Azimuth
Unknown
Elevation
Unknown
Doppler factor
Unknown
Orbital elements
Apogee altitude
462.894 km
Perigee altitude
462.033 km
Semi-major axis
6,840.601 km
Eccentricity
0.00006
Inclination
97.286°
RAAN
216.2732°
Arg. of periapsis
83.2202°
True anomaly
276.90404°
Mean anomaly
276.9112°
Eccentric anomaly
276.90762°
Mean motion
3.83621 °/min
Orbital period
93.84 mins
BSTAR
0.00038817
Loading maneuver chart data...
Computing Atmospheric mass density...
Loading historical data...
Loading historical data...
Loading historical data...
Loading historical data...
Loading historical data...
Loading historical data...
Loading historical data...

Documentation

Showing up to 5 results
|